User: anonymous
Location: Fort Wayne
(41.1310°N, 85.1290°W)
Time: 19:57:31
(UTC-04:00)
Language:

Iridium 37 - Orbit

View from above orbital plane
View from above orbital plane
View from above satellite
View from above satellite

Ground track
Ground track

The orbit data is extracted from the following two-line orbital elements,

1 24968U 97056D   14273.39685400  .00000605  00000-0  20894-3 0  9850
2 24968 086.4013 013.0005 0002336 111.4950 248.6495 14.34222233890525
Epoch (UTC): 30 September 2014 09:31:28
Eccentricity: 0.0002336
inclination: 86.4013°
perigee height: 776 km
apogee height: 779 km
right ascension of ascending node: 13.0005°
argument of perigee: 111.4950°
revolutions per day: 14.34222233
mean anomaly at epoch: 248.6495°
orbit number at epoch: 89052

The dashed part of the orbit path shows where the satellite is in the earth's shadow,  

DLR